Honolulu, HI

2:09 PM HST on October 20, 2017 (GMT -1000)
Honolulu International

Weather History for PHNL - March, 2014

Change the Weather History Date:

Monday, March 31, 2014

  Actual Average Record
Temperature  
Mean Temperature 78 °F 76 °F  
Max Temperature 84 °F 82 °F 87 °F (1974)
Min Temperature 72 °F 69 °F 62 °F (1979)
Degree Days  
Heating Degree Days 0 0  
Month to date heating degree days 0 0  
Since 1 July heating degree days 0 0  
Cooling Degree Days 13 10  
Month to date cooling degree days 309 293  
Year to date cooling degree days 828 775  
Growing Degree Days 28 (Base 50)    
Moisture  
Dew Point 65 °F    
Average Humidity 67    
Maximum Humidity 79    
Minimum Humidity 55    
Precipitation  
Precipitation 0.02 in 0.05 in 1.71 in (2006)
Month to date precipitation 2.61 2.02  
Year to date precipitation 6.29 6.32  
Snow  
Snow 0.00 in - - ()
Month to date snowfall 0.0  
Since 1 July snowfall 0.0  
Snow Depth 0.00 in    
Sea Level Pressure  
Sea Level Pressure 30.01 in    
Wind  
Wind Speed 11 mph (ENE)    
Max Wind Speed 23 mph    
Max Gust Speed 28 mph    
Visibility 10 miles    
Events Rain    
T = Trace of Precipitation, MM = Missing Value Source: NWS Daily Summary

Daily Weather History Graph

Daily Weather History Graph

Search for Another Location

Airport or City:

Trip Planner

Search our weather history database for the weather conditions in past years. The results will help you decide how hot, cold, wet, or windy it might be!

Date:

Astronomy

Mar. 31, 2014 Rise Set
Actual Time 6:25 AM HST 6:46 PM HST
Civil Twilight 6:03 AM HST 7:08 PM HST
Nautical Twilight 5:37 AM HST 7:34 PM HST
Astronomical Twilight 5:10 AM HST 8:00 PM HST
Moon 7:05 AM HST (3/31) 8:04 PM HST (3/31)
Length of Visible Light 13h 05m
Length of Day
12h 20m
New Moon, 2% of the Moon is Illuminated
Mar 31
New Moon
Apr 6
First Quarter
Apr 14
Full
Apr 21
Last Quarter
Apr 28
New

Hourly Weather History & Observations

Time (HST) Temp. Heat Index Dew Point Humidity Pressure Visibility Wind Dir Wind Speed Gust Speed Precip Events Conditions
12:53 AM 73.9 °F - 64.0 °F 71% 30.02 in 10.0 mi ENE 10.4 mph - N/A   Scattered Clouds
1:53 AM 73.9 °F - 64.9 °F 73% 30.00 in 10.0 mi ESE 8.1 mph - 0.00 in   Mostly Cloudy
2:53 AM 73.0 °F - 64.9 °F 76% 29.97 in 10.0 mi NNE 5.8 mph - 0.00 in   Scattered Clouds
3:53 AM 73.0 °F - 64.9 °F 76% 29.96 in 10.0 mi NE 5.8 mph - N/A   Scattered Clouds
4:53 AM 73.0 °F - 64.0 °F 73% 29.96 in 10.0 mi ENE 10.4 mph - N/A   Scattered Clouds
5:53 AM 73.0 °F - 66.0 °F 79% 29.98 in 10.0 mi ENE 9.2 mph - 0.00 in Rain Light Rain
6:53 AM 73.0 °F - 64.9 °F 76% 30.00 in 10.0 mi ENE 12.7 mph - 0.00 in   Mostly Cloudy
7:53 AM 73.0 °F - 66.9 °F 81% 30.01 in 7.0 mi East 8.1 mph - 0.00 in Rain Light Rain
8:53 AM 75.0 °F - 68.0 °F 79% 30.03 in 10.0 mi NE 6.9 mph - 0.02 in   Mostly Cloudy
9:53 AM 75.0 °F - 68.0 °F 79% 30.04 in 10.0 mi NE 11.5 mph - 0.00 in   Mostly Cloudy
10:53 AM 79.0 °F - 66.0 °F 64% 30.04 in 10.0 mi ENE 11.5 mph - N/A   Mostly Cloudy
11:53 AM 81.0 °F 82.7 °F 64.9 °F 58% 30.02 in 10.0 mi ENE 16.1 mph 24.2 mph N/A   Mostly Cloudy
12:53 PM 82.0 °F 83.4 °F 64.0 °F 54% 30.00 in 10.0 mi ENE 17.3 mph - N/A   Scattered Clouds
1:53 PM 82.0 °F 83.4 °F 64.0 °F 54% 29.99 in 10.0 mi ENE 18.4 mph 25.3 mph N/A   Mostly Cloudy
2:53 PM 81.0 °F 82.7 °F 64.9 °F 58% 29.98 in 10.0 mi ENE 18.4 mph 24.2 mph N/A   Mostly Cloudy
3:53 PM 82.0 °F 83.1 °F 63.0 °F 52% 29.97 in 10.0 mi NE 17.3 mph 25.3 mph 0.00 in   Scattered Clouds
4:53 PM 81.0 °F 82.2 °F 63.0 °F 54% 29.96 in 10.0 mi NE 19.6 mph 25.3 mph N/A   Scattered Clouds
5:53 PM 78.1 °F - 64.9 °F 64% 29.97 in 10.0 mi NE 16.1 mph - N/A   Scattered Clouds
6:53 PM 77.0 °F - 64.0 °F 64% 29.99 in 10.0 mi NE 11.5 mph - N/A   Scattered Clouds
7:53 PM 77.0 °F - 64.0 °F 64% 30.02 in 10.0 mi ENE 13.8 mph 19.6 mph N/A   Mostly Cloudy
8:53 PM 75.0 °F - 66.0 °F 73% 30.05 in 10.0 mi ENE 12.7 mph - N/A   Scattered Clouds
9:53 PM 75.0 °F - 64.9 °F 71% 30.06 in 10.0 mi ENE 10.4 mph - N/A   Scattered Clouds
10:53 PM 75.0 °F - 64.0 °F 69% 30.06 in 10.0 mi ENE 13.8 mph - N/A   Partly Cloudy
11:53 PM 75.0 °F - 64.0 °F 69% 30.05 in 10.0 mi ENE 15.0 mph 19.6 mph N/A   Scattered Clouds